Location: Jackson Park
(37.2862°N, 79.9123°W)
Time: 01:17:43
(UTC+00:00)

Tiros 1 despin weight - Pass Details

Date: 16 May 2026
Orbit: 554 x 591 km, 48.2° (Epoch: 6 June)

Event Time Altitude Azimuth Distance (km) Brightness Sun altitude
Rises 17:09:53 0° 291° (WNW) 2,727 ? 71.9°
Reaches altitude 10° 17:12:35 10° 274° (W) 1,829 ? 71.9°
Maximum altitude 17:15:39 20° 227° (SW) 1,309 ? 71.9°
Drops below altitude 10° 17:18:43 10° 179° (S) 1,827 ? 71.9°
Sets 17:21:24 0° 162° (SSE) 2,722 ? 71.9°
